Weather History for MRLB - June, 2014

Change the Weather History Date:

Wednesday, June 4, 2014

  Actual Average Record
Temperature  
Mean Temperature 83 °F -  
Max Temperature 91 °F 86 °F - ()
Min Temperature 75 °F 75 °F - ()
Cooling Degree Days 18    
Growing Degree Days 33 (Base 50)    
Moisture  
Dew Point 74 °F    
Average Humidity 81    
Maximum Humidity 94    
Minimum Humidity 52    
Precipitation  
Precipitation 0.00 in - - ()
Sea Level Pressure  
Sea Level Pressure 29.76 in    
Wind  
Wind Speed 4 mph ()    
Max Wind Speed 13 mph    
Max Gust Speed -    
Visibility 7.1 miles    
Events Rain    
T = Trace of Precipitation, MM = Missing Value Source: Averaged Metar Reports

Daily Weather History Graph

Daily Weather History Graph

Search for Another Location

Airport or City:

Trip Planner

Search our weather history database for the weather conditions in past years. The results will help you decide how hot, cold, wet, or windy it might be!

Date:

Astronomy

Jun. 04, 2014 Rise Set
Actual Time 5:19 AM CST 6:02 PM CST
Civil Twilight 4:56 AM CST 6:25 PM CST
Nautical Twilight 4:29 AM CST 6:51 PM CST
Astronomical Twilight 4:01 AM CST 7:19 PM CST
Moon 10:52 AM CST (6/4) 11:22 PM CST (6/4)
Length of Visible Light 13h 28m
Length of Day
12h 42m
Waxing Crescent, 39% of the Moon is Illuminated
Jun 4
Waxing Crescent
Jun 5
First Quarter
Jun 12
Full
Jun 19
Last Quarter
Jun 27
New

Hourly Weather History & Observations

Time (CST) Temp. Heat Index Dew Point Humidity Pressure Visibility Wind Dir Wind Speed Gust Speed Precip Events Conditions
6:00 AM 76 °F - 74 °F 90% 29.81 in 12 mi Calm Calm - -   Overcast
6:00 AM 77.0 °F - 73.4 °F 89% 29.78 in - Calm Calm - N/A   Clear
7:00 AM 78.8 °F - 73.4 °F 83% 29.80 in - ENE 2.3 mph - N/A   Clear
8:00 AM 80.6 °F 85.4 °F 73.4 °F 79% 29.81 in - NE 2.3 mph - N/A   Clear
9:00 AM 83 °F - 74 °F 68% 29.84 in 12 mi South 4.6 mph - -   Overcast
9:00 AM 82.4 °F 88.2 °F 73.4 °F 74% 29.81 in - South 4.6 mph - N/A   Clear
10:00 AM 86.0 °F 93.4 °F 73.4 °F 66% 29.79 in 6.2 mi SSE 2.3 mph - N/A   Overcast
11:00 AM 87.8 °F 97.6 °F 75.2 °F 66% 29.77 in 6.2 mi NE 2.3 mph - N/A   Mostly Cloudy
12:00 PM 90 °F - 74 °F 52% 29.77 in 12 mi SSW 2.3 mph - -   Overcast
12:00 PM 91.4 °F 102.5 °F 75.2 °F 59% 29.74 in 6.2 mi SSW 2.3 mph - N/A   Scattered Clouds
1:00 PM 89.6 °F 99.8 °F 75.2 °F 62% 29.73 in 6.2 mi South 3.5 mph - N/A   Mostly Cloudy
2:00 PM 89.6 °F 99.8 °F 75.2 °F 62% 29.71 in 6.2 mi West 6.9 mph - N/A Rain Rain
2:15 PM 82.4 °F 89.5 °F 75.2 °F 79% 29.72 in 1.2 mi West 10.4 mph - N/A Rain Rain
3:00 PM 78 °F - 75 °F 89% 29.73 in 12 mi WNW 11.5 mph - - Rain Light Rain
3:00 PM 78.8 °F - 75.2 °F 89% 29.72 in 6.2 mi WNW 11.5 mph - N/A Rain Light Rain
3:10 PM 77.0 °F - 73.4 °F 89% 29.72 in 6.2 mi West 11.5 mph - N/A Rain Rain
3:20 PM 77.0 °F - 73.4 °F 89% 29.74 in 1.2 mi WNW 5.8 mph - N/A Rain Rain
3:37 PM 75.2 °F - 73.4 °F 94% 29.73 in 6.2 mi SSW 12.7 mph - N/A Rain Rain
4:00 PM 75.2 °F - 73.4 °F 94% 29.73 in 6.2 mi WSW 12.7 mph - N/A   Mostly Cloudy
5:00 PM 77.0 °F - 73.4 °F 89% 29.74 in 6.2 mi NW 6.9 mph - N/A   Mostly Cloudy
6:00 PM 76 °F - 73 °F 88% 29.76 in 12 mi NNE 5.8 mph - -   Overcast
6:00 PM 75.2 °F - 73.4 °F 94% 29.75 in 6.2 mi NNE 5.8 mph - N/A   Mostly Cloudy
7:00 PM 75.2 °F - 73.4 °F 94% 29.76 in 6.2 mi East 4.6 mph - N/A   Mostly Cloudy
8:00 PM 75.2 °F - 73.4 °F 94% 29.78 in 6.2 mi South 3.5 mph - N/A   Mostly Cloudy